Location: Central Falls
(41.8900°N, 71.3929°W)
Time: 15:24:49
(UTC+00:00)

Vanguard 1 - Pass Details

Date: 11 December 2023
Orbit: 653 x 3826 km, 34.3° (Epoch: 24 February)

Event Time Altitude Azimuth Distance (km) Brightness Sun altitude
Rises 03:36:45 0° 282° (WNW) 7,120 14.7 -67.1°
Reaches altitude 10° 03:41:43 10° 275° (W) 6,415 14.3 -67.7°
Enters shadow 03:51:06 28° 254° (WSW) 5,413 13.6 -68.6°
Maximum altitude 04:00:17 36° 219° (SW) 5,036 - -69.5°
Drops below altitude 10° 04:18:51 10° 161° (SSE) 6,338 - -70.6°
Sets 04:23:50 0° 153° (SSE) 7,020 - -70.8°
